Location: Newark
(23.3970°S, 47.6010°W)
Time: 10:46:39
(UTC+00:00)

Tiros 1 - Visible Passes

Search period start: 17 February 2020 00:00
Search period end: 27 February 2020 00:00
Orbit: 630 x 664 km, 48.4° (Epoch: 16 February)

Date Brightness Start Highest point End Pass type
(mag) Time Alt. Az. Time Alt. Az. Time Alt. Az.
18 Feb 10.1 00:35:14 10° S 00:35:24 10° S 00:35:24 10° S visible
19 Feb 10.3 01:00:02 10° SSW 01:00:07 10° SSW 01:00:07 10° SSW visible
19 Feb 9.5 23:45:23 10° S 23:47:14 13° SSE 23:47:14 13° SSE visible
21 Feb 9.3 00:10:02 10° SSW 00:12:04 21° S 00:12:04 21° S visible
21 Feb 9.4 22:55:34 10° S 22:57:42 13° SSE 22:59:18 11° SE visible
22 Feb 9.7 00:35:38 10° SW 00:36:58 19° SW 00:36:58 19° SW visible
22 Feb 8.4 23:20:03 10° SSW 23:24:12 27° SE 23:24:16 27° SE visible
23 Feb 9.4 22:05:50 10° S 22:07:33 12° SSE 22:09:17 10° SE visible
23 Feb 7.8 23:45:34 10° SW 23:49:20 52° SSW 23:49:20 52° SSW visible
24 Feb 8.6 22:30:05 10° SSW 22:34:06 25° SE 22:36:48 16° E visible
25 Feb 9.0 00:11:50 10° WSW 00:14:29 28° W 00:14:29 28° W visible
25 Feb 7.2 22:55:31 10° SW 23:00:20 64° SE 23:02:03 37° ENE visible
26 Feb 10.2 00:39:43 10° W 00:39:45 10° W 00:39:45 10° W visible
26 Feb 8.0 23:21:42 10° WSW 23:26:18 45° NW 23:27:26 37° NNW visible
